DECAYED

CZ-6A DEB, 60777 (Decayed)

Orbit data source: Space-Track

CZ-6A DEB, 60777 was space debris in LEO originally from a launch on Tue, 06 Aug 2024 UTC launched from the Taiyaun Space Center, China (TSC). Debris objects in space refer to the collection of defunct objects orbiting the Earth. Examples of debris include non-operational satellites, rocket bodies, and fragments generated from explosions, collisions, or faulty payload assembly.

Not visible in the next 10 days
Identifier
60777, 2024-140FC
Orbit
Decayed
Country
Flag of CNCN / PRC
Related business
Manufacturer
SAST
Mission
Decayed spacecraft
Bus & Motor
Unknown
Mass
Unknown
Launch date (UTC)
2024-08-06 (1 year ago)
Launch vehicle
Unknown
Launch site
Taiyaun Space Center, China (TSC)
Object type
Payload
Rocket body
Debris
Shape & HBR
Unknown shape, 0.1 m
Radar Cross Section
Small (<0.1 m²)

Expand to show TLE details & history
Last TLE update: 11 months ago

TLE from 11 months ago
0 CZ-6A DEB
1 60777U 24140FC  25025.32439955  .09719731 -11184-5  42151-2 0  9995
2 60777  89.4576 340.0535 0032155 132.6673 227.7345 16.21245910 23941
Epoch: 2025-01-25T07:47Z
TLE epoch observation values (Epoch: 2025-01-25T07:47:08.121Z)
Latitude
-0.00003°
Longitude
98.39481°
Altitude
233.81 km
Speed
7.758 km/s
True Right ascension
22h 40m 12s
True Declination
0° 00' 00"
Sunlit
Object was in daylight at epoch
Visualization orbit readout
Latitude
Unknown
Longitude
Unknown
Altitude
Unknown
Speed
Unknown
Apparent Right ascension
Unknown
Apparent Declination
Unknown
Sunlit
N/A
Visualization observer readout
Local Sidereal Time
09:26:57
Azimuth
Unknown
Elevation
Unknown
Doppler factor
Unknown
Orbital elements
Apogee altitude
234.031 km
Perigee altitude
191.645 km
Semi-major axis
6,590.975 km
Eccentricity
0.00322
Inclination
89.4576°
RAAN
340.0535°
Arg. of periapsis
132.6673°
True anomaly
227.46256°
Mean anomaly
227.7345°
Eccentric anomaly
227.59845°
Mean motion
4.05619 °/min
Orbital period
88.75 mins
BSTAR
0.0042151
Loading maneuver chart data...
Computing Atmospheric mass density...
Loading historical data...
Loading historical data...
Loading historical data...
Loading historical data...
Loading historical data...
Loading historical data...
Loading historical data...

Documentation

Showing up to 5 results
|